Total_Precipitation_Accumulation
1.80 1.82 2.59 2.45 2.23 2.12 2.01 1.97 1.79 1.64 1.56 1.43 1.30 1.15 1.10 1.05 0.98 0.93 0.88 0.83 0.79 0.84 0.89 1.10 1.19 1.00 0.96 0.95 0.95 0.94 0.99 1.13 1.07 0.92 0.89 0.94 0.98 1.21 1.38 1.47 1.55 1.52 1.50
1.38 1.76 2.64 2.53 2.34 2.14 2.01 1.99 1.80 1.55 1.36 1.23 1.18 1.09 1.03 0.97 0.97 0.87 0.79 0.80 0.80 0.79 0.83 1.03 1.14 1.05 1.05 1.06 1.13 1.17 1.18 1.17 1.09 0.99 1.07 1.14 1.20 1.31 1.34 1.42 1.71 1.68 1.46
1.26 1.51 2.08 2.62 2.41 2.18 2.05 1.98 1.85 1.61 1.28 1.12 1.08 1.06 0.95 0.88 0.86 0.83 0.82 0.77 0.75 0.73 0.72 0.86 1.02 1.03 1.05 1.08 1.19 1.23 1.24 1.19 1.12 1.22 1.63 2.11 1.72 1.49 1.33 1.42 1.56 1.48 1.40
1.19 1.37 1.65 2.37 2.28 2.16 2.05 1.85 1.81 1.58 1.23 1.13 1.11 1.04 0.90 0.83 0.87 0.94 0.93 0.82 0.78 0.72 0.68 0.73 0.95 0.99 0.99 1.02 1.04 1.06 1.15 1.17 1.21 1.49 2.02 2.48 2.26 1.80 1.59 1.49 1.45 1.42 1.41
1.21 1.41 2.00 2.43 2.09 1.99 1.84 1.70 1.74 1.62 1.38 1.24 1.11 1.02 0.96 0.90 0.86 0.93 0.90 0.86 0.85 0.81 0.81 0.88 1.04 1.01 0.95 0.92 0.93 1.00 1.15 1.36 1.52 1.53 1.87 2.20 2.39 2.12 1.72 1.51 1.49 1.50 1.57
1.22 1.39 1.93 2.14 1.86 1.77 1.70 1.60 1.56 1.62 1.61 1.38 1.17 1.08 1.05 1.00 0.99 1.00 0.99 0.91 0.97 0.96 0.98 1.00 1.02 1.04 1.02 0.99 0.98 1.06 1.24 1.47 1.47 1.52 1.87 2.10 2.19 2.02 1.65 1.53 1.60 1.70 1.82
1.09 1.19 1.56 1.88 1.70 1.61 1.57 1.54 1.46 1.56 1.64 1.48 1.20 1.18 1.19 1.13 1.13 1.12 1.11 1.01 1.06 1.04 1.02 1.05 0.98 1.04 1.07 1.06 1.09 1.18 1.29 1.35 1.26 1.49 1.88 2.18 2.03 1.82 1.69 1.58 1.57 1.80 2.04
1.14 1.10 1.24 1.56 1.58 1.47 1.49 1.59 1.47 1.46 1.56 1.46 1.29 1.25 1.17 1.15 1.22 1.24 1.13 1.08 1.06 1.06 1.09 1.12 1.07 1.08 1.07 1.09 1.19 1.33 1.40 1.26 1.03 1.18 1.45 2.03 2.36 2.14 1.75 1.51 1.56 1.70 1.92
1.44 1.32 1.17 1.17 1.28 1.32 1.39 1.52 1.48 1.41 1.39 1.33 1.36 1.32 1.29 1.28 1.24 1.15 1.09 1.08 1.09 1.12 1.18 1.20 1.12 1.09 1.12 1.15 1.18 1.29 1.41 1.33 1.16 1.17 1.19 1.86 2.41 2.28 1.80 1.52 1.48 1.68 1.80
1.51 1.38 1.16 1.04 1.04 1.14 1.11 1.26 1.49 1.52 1.42 1.32 1.34 1.34 1.35 1.30 1.16 1.10 1.00 1.05 1.12 1.14 1.27 1.28 1.20 1.15 1.18 1.14 1.16 1.29 1.38 1.22 1.00 1.02 1.24 1.76 2.42 2.45 2.12 1.60 1.39 1.40 1.48
1.24 1.16 1.08 1.03 1.06 1.15 1.18 1.17 1.44 1.53 1.44 1.24 1.17 1.22 1.20 1.02 0.98 1.00 0.98 1.20 1.21 1.30 1.40 1.38 1.34 1.29 1.19 1.15 1.26 1.37 1.20 0.95 1.02 1.06 1.38 1.93 2.33 2.37 2.21 1.83 1.47 1.32 1.30
0.96 0.87 0.83 0.84 0.94 1.04 1.10 1.42 1.64 1.47 1.38 1.12 1.14 1.02 1.01 1.06 1.13 0.97 1.05 1.38 1.40 1.45 1.46 1.48 1.44 1.34 1.08 0.90 1.08 1.18 1.01 0.97 1.01 1.03 1.37 1.98 2.26 2.27 2.09 1.85 1.57 1.41 1.36
0.73 0.65 0.60 0.57 0.59 0.67 0.87 1.21 1.50 1.63 1.62 1.57 1.36 1.13 1.10 0.94 0.82 0.78 0.85 1.02 1.12 1.25 1.24 1.25 1.23 1.04 0.95 0.91 0.90 0.91 1.04 1.01 1.10 1.11 1.42 1.91 2.18 2.26 2.09 1.87 1.63 1.50 1.47
0.69 0.64 0.55 0.53 0.49 0.50 0.58 0.75 0.95 1.13 1.23 1.27 1.15 1.00 1.07 0.95 0.84 0.84 0.86 0.86 0.88 1.02 1.18 1.18 1.16 1.02 0.92 0.84 0.82 0.91 0.97 0.96 1.11 1.31 1.56 1.66 1.92 2.21 2.24 2.03 1.82 1.68 1.63
0.81 0.81 0.70 0.58 0.52 0.52 0.55 0.61 0.67 0.84 0.94 0.98 1.01 0.93 0.97 0.99 0.97 0.92 0.84 0.85 0.79 0.91 1.07 1.17 1.13 1.04 1.03 0.97 0.89 0.99 1.04 1.13 1.17 1.22 1.35 1.45 1.71 2.13 2.46 2.46 2.18 1.93 1.81
0.86 0.85 0.82 0.69 0.64 0.61 0.56 0.58 0.60 0.70 0.78 0.81 0.79 0.79 0.89 0.99 0.99 0.97 0.94 0.97 0.93 0.98 1.13 1.15 1.06 1.11 1.18 1.09 0.90 0.92 1.02 1.10 1.16 1.18 1.22 1.38 1.55 1.74 2.26 2.58 2.50 2.28 2.21
0.85 0.81 0.80 0.78 0.78 0.75 0.69 0.65 0.64 0.70 0.78 0.78 0.75 0.70 0.73 0.82 0.87 0.91 0.94 0.95 1.00 1.10 1.17 1.22 1.07 1.12 1.10 1.03 0.97 0.92 0.94 0.98 1.02 1.08 1.05 1.11 1.27 1.46 1.87 2.32 2.61 2.59 2.59
0.71 0.70 0.74 0.73 0.75 0.78 0.78 0.78 0.81 0.79 0.85 0.80 0.78 0.72 0.68 0.74 0.81 0.95 0.98 0.95 0.98 1.13 1.25 1.32 1.24 1.23 1.19 1.15 1.12 1.04 0.95 1.02 0.97 1.01 1.05 1.03 1.20 1.20 1.46 1.77 2.05 2.30 2.57
0.62 0.63 0.64 0.66 0.65 0.73 0.78 0.81 0.92 0.94 0.94 0.89 0.86 0.78 0.75 0.82 0.91 1.10 1.21 1.20 1.18 1.22 1.23 1.20 1.29 1.32 1.31 1.30 1.22 1.17 1.09 1.05 1.10 1.03 1.05 1.10 1.09 1.15 1.31 1.36 1.47 1.56 1.95
0.59 0.58 0.56 0.62 0.62 0.66 0.78 0.89 1.05 1.17 1.13 1.13 1.06 0.94 0.94 1.10 1.26 1.44 1.42 1.49 1.56 1.46 1.43 1.39 1.43 1.39 1.32 1.36 1.25 1.15 1.10 1.03 1.17 1.22 1.17 1.20 1.18 1.11 1.31 1.43 1.39 1.18 1.40
0.52 0.54 0.53 0.52 0.60 0.64 0.68 0.81 1.02 1.31 1.41 1.50 1.44 1.25 1.18 1.31 1.56 1.81 1.76 1.83 1.90 1.81 1.78 1.79 2.00 1.95 1.67 1.44 1.51 1.36 1.19 1.09 1.26 1.33 1.27 1.32 1.37 1.40 1.51 1.51 1.40 1.24 1.10
0.40 0.46 0.48 0.48 0.55 0.60 0.65 0.82 0.97 1.12 1.12 1.31 1.44 1.41 1.32 1.32 1.48 1.62 1.89 2.01 1.98 2.07 2.20 2.18 2.55 2.68 2.21 1.77 1.80 1.99 1.75 1.57 1.37 1.24 1.26 1.30 1.43 1.63 1.67 1.52 1.39 1.23 1.12
0.31 0.32 0.34 0.37 0.46 0.58 0.71 0.91 1.11 1.29 1.38 1.45 1.38 1.47 1.48 1.40 1.45 1.56 1.71 1.86 1.90 2.02 2.16 2.27 2.61 3.12 2.88 2.27 2.04 2.37 2.13 1.90 1.77 1.44 1.25 1.27 1.39 1.67 1.90 1.81 1.58 1.41 1.23
0.28 0.25 0.27 0.35 0.48 0.68 0.88 1.10 1.33 1.54 1.57 1.47 1.52 1.56 1.44 1.37 1.33 1.41 1.54 1.68 1.82 1.86 2.01 2.11 2.24 2.76 3.15 2.83 2.51 2.19 1.87 1.81 1.95 1.85 1.49 1.38 1.42 1.56 1.75 1.75 1.63 1.59 1.44
0.31 0.31 0.36 0.55 0.79 1.03 1.25 1.50 1.76 1.74 1.63 1.54 1.55 1.53 1.47 1.47 1.44 1.44 1.57 1.65 1.67 1.74 1.86 2.19 2.46 2.73 2.95 2.94 2.87 2.66 2.39 2.11 1.78 1.96 1.95 1.68 1.56 1.51 1.57 1.62 1.57 1.58 1.57
0.59 0.73 0.91 1.17 1.35 1.45 1.57 1.72 1.82 1.77 1.77 1.72 1.54 1.46 1.45 1.50 1.56 1.59 1.64 1.64 1.62 1.67 1.78 2.01 2.31 2.53 2.83 3.01 2.93 2.72 2.60 2.47 2.25 2.15 1.99 1.85 1.82 1.64 1.51 1.49 1.42 1.44 1.54